Regional Weather Roundup
Issued by NWS

Home | Current Version | Previous Version | Graphics & Text | Print | Product List | Glossary On
Versions: 1 2 3 4 5 6 7 8 9 10 11 12 13 14 15 16 17 18 19 20 21 22 23 24 25 26 27 28 29 30 31 32 33 34 35 36 37 38 39 40 41 42 43 44 45 46 47 48 49 50
000
ASUS43 KBIS 260802
RWRND

NORTH DAKOTA REGIONAL WEATHER ROUNDUP
NATIONAL WEATHER SERVICE BISMARCK ND
300 AM CDT TUE JUL 26 2016

NOTE: "FAIR" INDICATES FEW OR NO CLOUDS BELOW 12,000 FEET WITH NO
SIGNIFICANT WEATHER AND/OR OBSTRUCTIONS TO VISIBILITY.


NDZ001>003-009>011-017-260900-
NORTHWEST NORTH DAKOTA

CITY           SKY/WX    TMP DP  RH WIND       PRES   REMARKS
WILLISTON      CLEAR     64  58  80 N6        30.01R
MINOT          CLEAR     68  64  87 W6        29.99R
MINOT AFB      CLEAR     58  57  95 W3        29.98R
$$

NDZ018>021-031>035-040>046-260900-
SOUTHWEST NORTH DAKOTA

CITY           SKY/WX    TMP DP  RH WIND       PRES   REMARKS
BISMARCK       CLOUDY    72  69  90 NE9       29.95S
DICKINSON      CLEAR     63  62  97 NE9       29.99F
GARRISON         N/A     67  65  93 N6        30.00R
HETTINGER ARPT CLEAR     71  63  75 NE15      29.99F
$$

NDZ004>008-012>016-024-026-027-054-260900-
NORTHEAST NORTH DAKOTA

CITY           SKY/WX    TMP DP  RH WIND       PRES   REMARKS
GRAND FORKS    CLEAR     67  63  87 N6        29.91S
GRND FRKS AFB  CLEAR     66  65  97 N5        29.93R
DEVILS LAKE    CLEAR     67  65  93 NE5       29.98R
$$

NDZ022-023-025-028>030-036>039-047>053-260900-
SOUTHEAST NORTH DAKOTA

CITY           SKY/WX    TMP DP  RH WIND       PRES   REMARKS
FARGO          PTCLDY    72  64  76 S9        29.92S
JAMESTOWN      CLOUDY    69  68  96 N6        29.93S
$$





USA.gov is the U.S. government's official web portal to all federal, state and local government web resources and services.